Regional Weather Roundup
Issued by NWS

Home | Current Version | Previous Version | Graphics & Text | Print | Product List | Glossary On
Versions: 1 2 3 4 5 6 7 8 9 10 11 12 13 14 15 16 17 18 19 20 21 22 23 24 25 26 27 28 29 30 31 32 33 34 35 36 37 38 39 40 41 42 43 44 45 46 47 48 49 50
000
ASUS43 KLSX 041010
RWRMO

WEATHER SUMMARY FOR MISSOURI
NATIONAL WEATHER SERVICE SPRINGFIELD MO
500 AM CDT WED MAY 04 2016

NOTE: "FAIR" INDICATES FEW OR NO CLOUDS BELOW 12,000 FEET WITH NO
       SIGNIFICANT WEATHER AND/OR OBSTRUCTIONS TO VISIBILITY.
       CURRENT SKY AND/OR WEATHER CONDITIONS ARE NOT AVAILABLE FOR
       CHILLICOTHE AND FARMINGTON.

MOZ001>031-035>038-043-044-053-054-041100-
...NORTHERN AND WESTERN MISSOURI...

CITY           SKY/WX    TMP DP  RH WIND       PRES   REMARKS
KANSAS CTY INT PTCLDY    57  43  59 NW15G22   29.85R
KANSAS C DTWN  CLEAR     59  43  55 W10       29.84R
LEE`S SUMMIT   PTCLDY    57  43  59 W8        29.84S
ST JOSEPH      CLEAR     55  43  63 NW12      29.86R
CHILLICOTHE      N/A     57  44  62 VRB6      29.80R
KIRKSVILLE     CLEAR     54  42  64 NW9       29.75S

$$
MOZ066>068-077>081-088>096-101>105-041100-
...SOUTHWEST MISSOURI...

CITY           SKY/WX    TMP DP  RH WIND       PRES   REMARKS
SPRINGFIELD    CLEAR     55  43  63 W13       29.89F
JOPLIN         CLEAR     54  45  71 SW13      29.92F

$$
MOZ032>034-039>042-045>050-055>058-069>072-041100-
...CENTRAL MISSOURI...

CITY           SKY/WX    TMP DP  RH WIND       PRES   REMARKS
COLUMBIA       MOCLDY    55  46  71 W12       29.75F
JEFFERSON CITY CLOUDY    57  45  64 W8        29.77F
ROLLA          CLEAR     48  43  82 S13       29.78F
SEDALIA        PTCLDY    56  46  69 SW13      29.80F
WHITEMAN AFB   PTCLDY    56  46  66 W14       29.79F
WARRENSBURG    PTCLDY    54  45  71 SW10      29.81F
OSAGE BEACH    MOCLDY    55  39  54 SW8       29.82F

$$
MOZ051-052-059>065-041100-
...EAST CENTRAL MISSOURI...

CITY           SKY/WX    TMP DP  RH WIND       PRES   REMARKS
ST LOUIS INTL  LGT RAIN  59  42  53 W20G28    29.73F
SPIRIT OF STL  CLOUDY    56  44  64 SW16G22   29.72F
ST CHARLES     CLOUDY    56  47  71 W6        29.72F

$$
MOZ072>076-082>087-097>100-106>115-041100-
...SOUTH CENTRAL AND SOUTHEAST MISSOURI...

CITY           SKY/WX    TMP DP  RH WIND       PRES   REMARKS
CAPE GIRARDEAU CLEAR     48  46  93 W6        29.84F
FARMINGTON     CLOUDY    49  43  80 CALM      29.81F
POPLAR BLUFF   CLEAR     50  46  86 SW6       29.86F
WEST PLAINS    CLEAR     45  39  79 SW5       29.89F

$$



USA.gov is the U.S. government's official web portal to all federal, state and local government web resources and services.